FW4613 Weather Reports


time (UTC)temp
F
wind
direction
speed
knots
gust
knots
rain 1hr
in
rain 24hr
in
rain mn
in
humidity
%
barometer
mb
20260510104551 51 157 0.0 0.0 0.00 0.22 0.22 98 1013.8
20260510104035 51 156 0.0 0.0 0.00 0.22 0.22 98 1013.7
20260510103552 51 157 0.0 0.0 0.00 0.22 0.22 98 1013.8
20260510103043 51 157 0.0 0.0 0.00 0.22 0.22 98 1013.7
20260510102557 51 157 0.0 0.0 0.00 0.22 0.22 98 1013.6
20260510102039 51 157 0.0 0.0 0.00 0.22 0.22 98 1013.5
20260510101603 51 157 0.0 1.7 0.00 0.22 0.22 98 1013.5
20260510101021 51 157 0.0 0.9 0.00 0.22 0.22 98 1013.4
20260510100559 51 157 0.0 1.7 0.00 0.22 0.22 98 1013.3
20260510100020 51 152 0.0 0.0 0.00 0.22 0.22 98 1013.2
20260510095543 51 149 0.0 0.0 0.00 0.22 0.22 98 1013.3
20260510095024 51 149 0.0 0.0 0.00 0.22 0.22 98 1013.4
20260510094541 51 149 0.0 0.0 0.00 0.22 0.22 98 1013.4
20260510094100 51 149 0.0 0.0 0.00 0.22 0.22 98 1013.3
20260510094008 51 149 0.0 0.0 0.00 0.22 0.22 98 1013.2
20260510093544 51 150 0.0 0.0 0.00 0.22 0.22 98 1013.2
20260510093014 51 150 0.0 0.0 0.00 0.22 0.22 98 1013.1
20260510092551 51 149 0.0 0.0 0.00 0.22 0.22 98 1013.0
20260510092017 51 150 0.0 0.0 0.00 0.22 0.22 98 1013.0
20260510091556 51 149 0.0 0.0 0.00 0.22 0.22 98 1012.8
20260510091017 51 148 0.0 0.0 0.00 0.22 0.22 98 1012.8
20260510090537 51 148 0.0 0.9 0.00 0.22 0.22 98 1012.7
20260510090059 50 142 0.0 0.9 0.00 0.22 0.22 98 1012.8
20260510090004 50 142 0.0 0.9 0.00 0.22 0.22 98 1012.9
20260510085537 50 134 0.0 0.9 0.00 0.22 0.22 98 1012.9
20260510085018 50 68 0.0 0.9 0.00 0.22 0.22 98 1013.2
20260510084535 50 68 0.0 0.9 0.00 0.22 0.22 98 1013.2
20260510084017 50 68 0.0 0.0 0.00 0.22 0.22 98 1013.2
20260510083539 50 68 0.0 0.0 0.00 0.22 0.22 98 1013.3
20260510083103 50 68 0.0 0.9 0.00 0.22 0.22 98 1013.2
20260510083000 50 66 0.0 0.9 0.00 0.22 0.22 98 1013.2
20260510082540 50 66 0.0 0.9 0.00 0.22 0.22 98 1013.4
20260510082058 50 149 0.0 0.9 0.00 0.22 0.22 98 1013.4
20260510081545 49 126 0.0 1.7 0.00 0.22 0.22 98 1013.5
20260510081059 49 160 0.0 2.6 0.00 0.22 0.22 98 1013.0
20260510081001 49 158 0.0 2.6 0.00 0.22 0.22 98 1013.2
20260510080545 49 141 0.0 2.6 0.00 0.22 0.22 98 1013.0
20260510080004 49 340 0.0 3.5 0.00 0.22 0.22 98 1013.3
20260510075530 49 29 0.0 3.5 0.00 0.22 0.22 98 1012.9
20260510075009 50 129 0.0 0.0 0.00 0.22 0.22 98 1012.7
20260510074545 50 129 0.0 0.0 0.00 0.22 0.22 98 1012.5
20260510074012 50 129 0.0 0.0 0.00 0.22 0.22 98 1012.4
20260510073540 50 129 0.0 0.0 0.00 0.22 0.22 98 1012.5
20260510073031 49 129 0.0 0.0 0.00 0.22 0.22 98 1012.4
20260510072546 49 129 0.0 0.0 0.00 0.22 0.22 98 1012.5
20260510072013 49 129 0.0 0.0 0.00 0.22 0.22 98 1012.3
20260510071556 49 129 0.0 0.0 0.00 0.22 0.22 98 1012.4
20260510071014 49 129 0.0 0.0 0.00 0.22 0.22 98 1012.5
20260510070552 49 129 0.0 0.9 0.00 0.22 0.22 98 1012.6
20260510070014 49 129 0.0 0.9 0.00 0.22 0.22 98 1012.5
20260510065537 49 129 0.0 1.7 0.00 0.22 0.22 98 1012.6
20260510065015 49 131 0.0 3.5 0.00 0.22 0.22 98 1012.5
20260510064536 49 127 0.0 3.5 0.00 0.22 0.22 98 1012.7
20260510064056 49 111 0.0 3.5 0.00 0.22 0.22 98 1012.5
20260510063542 48 130 0.9 3.5 0.00 0.22 0.22 98 1012.3
20260510063004 48 137 0.0 1.7 0.00 0.22 0.22 98 1012.4
20260510062542 48 106 0.0 0.9 0.00 0.22 0.22 98 1012.4
20260510062014 48 165 0.0 0.0 0.00 0.22 0.22 98 1012.2
20260510061550 48 205 0.0 0.0 0.00 0.22 0.22 98 1012.1
20260510061010 48 205 0.0 0.0 0.00 0.22 0.22 98 1012.0
20260510060535 48 205 0.0 0.0 0.00 0.22 0.22 98 1012.1
20260510060013 48 205 0.0 0.0 0.00 0.22 0.22 98 1012.0
20260510055532 48 205 0.0 0.0 0.00 0.22 0.22 98 1012.1
20260510055050 48 205 0.0 0.0 0.00 0.22 0.22 98 1012.2
20260510054533 49 205 0.0 0.0 0.00 0.22 0.22 98 1012.3
20260510054051 49 205 0.0 0.0 0.00 0.22 0.22 98 1012.4
20260510053519 49 205 0.0 0.0 0.00 0.22 0.22 98 1012.3
20260510053058 49 205 0.0 0.0 0.00 0.22 0.22 98 1012.2
20260510052528 49 205 0.0 0.0 0.00 0.22 0.22 98 1012.3
20260510052101 49 205 0.0 0.0 0.00 0.22 0.22 98 1012.3
20260510052007 49 205 0.0 0.0 0.00 0.22 0.22 98 1012.3
20260510051545 49 205 0.0 0.0 0.00 0.22 0.22 98 1012.2
20260510051005 49 205 0.0 0.0 0.00 0.22 0.22 98 1012.3
20260510050527 49 205 0.0 0.0 0.00 0.22 0.22 98 1012.4
20260510050059 50 205 0.0 0.9 0.00 0.22 0.22 98 1012.3
20260510045539 50 205 0.0 0.9 0.00 0.22 0.22 98 1012.4
20260510045013 50 205 0.0 0.0 0.00 0.22 0.22 98 1012.5
20260510044551 50 205 0.0 0.0 0.00 0.22 0.22 98 1012.5
20260510044033 50 205 0.0 0.0 0.00 0.22 0.22 98 1012.6
20260510043509 50 205 0.0 0.0 0.00 0.22 0.22 98 1012.5
20260510043054 50 205 0.0 0.0 0.00 0.22 0.22 98 1012.6
20260510042525 49 205 0.0 0.0 0.00 0.22 0.22 98 1012.6
20260510042005 49 205 0.0 0.0 0.00 0.22 0.22 98 1012.7
20260510041546 49 205 0.0 0.0 0.00 0.22 0.22 98 1012.7
20260510041030 49 205 0.0 0.0 0.00 0.22 0.22 98 1012.6
20260510040510 49 205 0.0 0.0 0.00 0.22 0.22 98 1012.7
20260510040047 49 205 0.0 0.0 0.00 0.22 0.22 98 1012.7
20260510035509 49 205 0.0 0.0 0.00 0.22 0.22 98 1012.7
20260510035040 49 205 0.0 0.0 0.00 0.22 0.22 98 1012.7
20260510034521 49 205 0.0 0.0 0.00 0.22 0.22 98 1012.7
20260510034059 49 205 0.0 0.0 0.00 0.22 0.22 98 1012.6
20260510034007 49 205 0.0 0.0 0.00 0.22 0.22 98 1012.5
20260510033542 49 205 0.0 0.0 0.00 0.22 0.22 98 1012.5
20260510033008 49 205 0.0 0.0 0.00 0.22 0.22 98 1012.6
20260510032544 49 205 0.0 0.0 0.00 0.22 0.22 98 1012.6
20260510032024 50 205 0.0 0.0 0.00 0.22 0.22 98 1012.5
20260510031502 50 205 0.0 0.0 0.00 0.22 0.22 98 1012.4
20260510031043 50 205 0.0 0.0 0.00 0.22 0.22 98 1012.3
20260510030525 49 205 0.0 0.0 0.00 0.22 0.22 98 1012.3
20260510030100 49 205 0.0 0.0 0.00 0.22 0.22 98 1012.3
20260510030012 49 205 0.0 0.0 0.00 0.22 0.22 98 1012.2
20260510025545 50 205 0.0 0.0 0.00 0.22 0.22 98 1012.3
20260510025028 50 205 0.0 0.0 0.00 0.22 0.22 98 1012.3
20260510024508 50 205 0.0 0.0 0.00 0.22 0.22 98 1012.3
20260510024044 50 205 0.0 0.0 0.00 0.22 0.22 98 1012.3
20260510023506 50 205 0.0 0.0 0.00 0.22 0.22 98 1012.3
20260510023044 50 205 0.0 0.0 0.00 0.22 0.22 98 1012.3
20260510022533 50 205 0.0 0.0 0.00 0.22 0.22 98 1012.3
20260510022048 50 205 0.0 0.0 0.00 0.22 0.22 98 1012.4
20260510021526 51 205 0.0 0.0 0.00 0.22 0.22 98 1012.3
20260510021004 51 205 0.0 0.0 0.00 0.22 0.22 98 1012.3
20260510020526 51 205 0.0 0.0 0.00 0.22 0.22 98 1012.3
20260510020004 51 205 0.0 0.0 0.00 0.22 0.22 98 1012.2
20260510015544 51 205 0.0 0.0 0.00 0.22 0.22 98 1012.1
20260510015026 51 205 0.0 0.0 0.00 0.22 0.22 98 1012.0
20260510014558 51 205 0.0 0.0 0.00 0.22 0.22 98 1012.1
20260510014504 51 205 0.0 0.0 0.00 0.22 0.22 98 1012.0
20260510014040 51 205 0.0 0.0 0.00 0.22 0.22 98 1012.1
20260510013519 51 205 0.0 0.0 0.00 0.22 0.22 98 1012.0
20260510013057 51 205 0.0 0.0 0.00 0.22 0.22 98 1012.0
20260510012518 51 205 0.0 0.0 0.00 0.22 0.22 98 1012.1
20260510012054 52 205 0.0 0.0 0.00 0.22 0.22 98 1012.1
20260510011550 52 205 0.0 0.0 0.00 0.22 0.22 98 1012.0
20260510011020 52 205 0.0 0.0 0.00 0.22 0.22 98 1011.9
20260510010556 52 205 0.0 0.0 0.00 0.22 0.22 98 1012.0
20260510010042 53 205 0.0 0.0 0.00 0.22 0.22 98 1011.9
20260510005518 53 205 0.0 0.0 0.00 0.22 0.22 98 1011.7
20260510005055 53 205 0.0 0.0 0.00 0.22 0.22 98 1011.7
20260510004520 53 205 0.0 0.0 0.00 0.22 0.22 98 1011.7
20260510004058 53 205 0.0 0.0 0.00 0.22 0.22 98 1011.8
20260510004008 53 205 0.0 0.0 0.00 0.22 0.22 98 1011.7
20260510003540 53 205 0.0 0.0 0.00 0.22 0.22 98 1011.6
20260510003047 54 205 0.0 0.0 0.00 0.22 0.22 97 1011.7
20260510002602 54 205 0.0 0.0 0.00 0.22 0.22 97 1011.7
20260510002035 54 205 0.0 0.0 0.00 0.22 0.22 97 1011.6
20260510001518 54 205 0.0 0.0 0.00 0.22 0.22 98 1011.4
20260510001043 55 205 0.0 0.9 0.00 0.22 0.22 97 1011.4
20260510000520 55 206 0.0 0.9 0.00 0.22 0.22 97 1011.3
20260509235522 55 207 0.0 0.9 0.00 0.22 0.22 97 1011.3
20260509235101 55 207 0.0 0.9 0.00 0.22 0.22 97 1011.4
20260509235002 55 207 0.0 0.9 0.00 0.22 0.22 97 1011.4
20260509234558 56 224 0.0 0.9 0.00 0.22 0.22 97 1011.4
20260509234029 56 224 0.0 1.7 0.00 0.22 0.22 97 1011.5
20260509233600 56 224 0.0 0.0 0.00 0.22 0.22 97 1011.4
20260509233042 56 195 0.0 0.0 0.00 0.22 0.22 97 1011.4
20260509232522 56 195 0.0 1.7 0.00 0.22 0.22 97 1011.6
20260509232100 57 195 0.0 1.7 0.00 0.22 0.22 97 1011.6
20260509232005 57 195 0.0 1.7 0.00 0.22 0.22 97 1011.6
20260509231550 57 69 0.0 0.9 0.00 0.22 0.22 97 1011.5
20260509231024 57 69 0.0 2.6 0.00 0.22 0.22 97 1011.5
20260509230557 58 68 0.0 2.6 0.00 0.22 0.22 97 1011.5
20260509230043 58 136 0.0 0.9 0.00 0.22 0.22 97 1011.4
20260509225520 58 40 0.0 0.9 0.00 0.22 0.22 98 1011.4
20260509225057 58 111 0.0 0.9 0.00 0.22 0.22 97 1011.4
20260509225006 58 111 0.0 0.9 0.00 0.22 0.22 97 1011.3
20260509224543 58 111 0.0 0.9 0.00 0.22 0.22 98 1011.3
20260509224100 58 110 0.0 0.9 0.00 0.22 0.22 98 1011.4
20260509224004 58 111 0.0 0.9 0.00 0.22 0.22 98 1011.5
20260509223542 58 111 0.0 0.9 0.00 0.22 0.22 98 1011.5
20260509223024 57 138 0.0 0.9 0.00 0.22 0.22 97 1011.4
20260509222544 58 125 0.0 0.0 0.00 0.22 0.22 98 1011.4
20260509222025 57 105 0.0 0.0 0.00 0.22 0.22 97 1011.4
20260509221544 58 106 0.0 0.0 0.00 0.22 0.22 97 1011.4
20260509221022 58 241 0.0 0.9 0.00 0.22 0.22 98 1011.3
20260509220557 58 241 0.0 3.5 0.00 0.22 0.22 98 1011.1
20260509220042 57 242 0.0 1.7 0.00 0.22 0.22 97 1011.1
20260509215520 58 131 0.0 0.9 0.00 0.22 0.22 98 1011.2
20260509215056 57 136 0.0 0.9 0.00 0.22 0.22 98 1011.2
20260509214536 57 134 0.0 0.9 0.00 0.22 0.22 98 1011.3
20260509214018 57 135 0.0 1.7 0.00 0.22 0.22 98 1011.3
20260509213554 57 133 0.0 1.7 0.00 0.22 0.22 98 1011.3
20260509213040 57 116 0.0 0.9 0.00 0.22 0.22 98 1011.5
20260509212521 57 116 0.0 0.9 0.00 0.22 0.22 97 1011.4
20260509212054 57 116 0.0 0.9 0.00 0.22 0.22 97 1011.5
20260509211540 56 110 0.0 1.7 0.00 0.22 0.22 97 1011.7
20260509211023 56 128 0.0 1.7 0.00 0.22 0.22 97 1011.8
20260509210556 57 105 0.0 0.9 0.00 0.22 0.22 98 1011.6
20260509210036 56 100 0.0 0.9 0.01 0.22 0.22 98 1011.7
20260509205511 56 100 0.0 0.9 0.01 0.22 0.22 98 1011.7
20260509205043 55 210 0.0 1.7 0.01 0.22 0.22 98 1011.6
20260509204522 55 211 0.0 1.7 0.01 0.22 0.22 98 1011.5
20260509204100 55 118 0.0 1.7 0.01 0.22 0.22 98 1011.5
20260509204004 55 119 0.0 1.7 0.02 0.22 0.22 98 1011.5
20260509203528 55 148 0.0 1.7 0.02 0.22 0.22 98 1011.6
20260509203044 55 129 0.0 2.6 0.02 0.22 0.22 98 1011.8
20260509202524 55 231 0.0 2.6 0.02 0.22 0.22 97 1011.5
20260509202056 55 218 0.9 1.7 0.02 0.22 0.22 97 1011.4
20260509201521 55 227 0.0 3.5 0.02 0.22 0.22 97 1011.5
20260509201040 55 227 0.0 2.6 0.03 0.22 0.22 97 1011.5
20260509200520 55 184 0.0 2.6 0.03 0.22 0.22 97 1011.7
20260509200040 55 165 0.0 2.6 0.03 0.21 0.21 97 1011.6
20260509195554 55 214 0.0 1.7 0.04 0.21 0.21 97 1011.7
20260509195033 55 217 0.0 1.7 0.04 0.21 0.21 97 1011.9
20260509194513 54 103 0.0 0.0 0.04 0.21 0.21 97 1012.0
20260509194033 54 103 0.0 2.6 0.03 0.20 0.21 97 1012.0
20260509193556 54 115 0.0 3.5 0.03 0.20 0.20 97 1012.1
20260509193039 54 136 0.0 3.5 0.03 0.20 0.20 97 1012.2
20260509192557 55 162 0.0 0.9 0.03 0.20 0.20 97 1012.2
20260509192022 55 163 0.0 1.7 0.04 0.20 0.20 97 1012.3
20260509191556 55 98 0.0 1.7 0.04 0.20 0.20 97 1012.3
20260509191020 55 125 0.0 1.7 0.03 0.19 0.19 97 1012.6
20260509190556 55 110 0.0 2.6 0.04 0.19 0.19 97 1012.7
20260509190038 55 63 0.0 2.6 0.04 0.18 0.18 97 1012.7
20260509185510 55 29 0.0 2.6 0.04 0.17 0.17 97 1012.8
20260509185039 55 50 0.0 3.5 0.04 0.17 0.17 97 1012.8
20260509184521 55 57 0.9 3.5 0.05 0.17 0.17 96 1012.9
20260509184053 55 56 0.0 1.7 0.05 0.17 0.17 96 1013.0
20260509183542 55 58 0.0 1.7 0.06 0.17 0.17 96 1012.9
20260509183024 55 54 0.0 2.6 0.08 0.17 0.17 94 1012.8
20260509182552 55 69 0.0 3.5 0.09 0.17 0.17 93 1012.8
20260509182027 56 52 0.0 2.6 0.09 0.16 0.16 93 1013.0
20260509181612 56 63 0.0 2.6 0.10 0.16 0.16 94 1013.0
20260509181034 56 63 0.0 2.6 0.10 0.16 0.16 93 1013.0
20260509180513 56 49 0.9 2.6 0.10 0.15 0.15 93 1013.2
20260509180040 56 49 0.0 2.6 0.10 0.14 0.14 93 1013.2
20260509175516 56 56 0.0 1.7 0.09 0.13 0.13 92 1013.2
20260509175052 56 52 0.0 1.7 0.09 0.13 0.13 92 1013.2
20260509174514 56 42 0.0 0.9 0.09 0.12 0.12 92 1013.0
20260509174050 57 41 0.0 1.7 0.09 0.12 0.12 92 1013.1
20260509173507 56 60 0.0 1.7 0.07 0.10 0.10 92 1013.0
20260509173029 57 60 0.0 1.7 0.07 0.09 0.09 91 1013.0
20260509172503 57 56 0.0 1.7 0.06 0.08 0.08 91 1012.9
20260509172026 57 60 0.0 1.7 0.05 0.07 0.07 90 1012.9
20260509171600 57 61 0.0 0.9 0.05 0.06 0.06 90 1012.7
20260509171041 57 60 0.0 0.9 0.05 0.06 0.06 88 1012.6
20260509170518 57 60 0.0 0.0 0.05 0.05 0.05 89 1012.7
20260509170054 57 60 0.0 1.7 0.04 0.04 0.04 89 1012.9
20260509165533 57 60 0.0 2.6 0.04 0.04 0.04 88 1012.9
20260509165016 57 63 0.0 2.6 0.04 0.04 0.04 87 1012.8
20260509164544 57 46 0.9 3.5 0.03 0.03 0.03 87 1012.9
20260509164024 57 31 0.9 3.5 0.03 0.03 0.03 86 1013.0
20260509163558 58 60 0.9 4.3 0.03 0.03 0.03 86 1012.9
20260509163035 58 54 0.9 4.3 0.02 0.02 0.02 85 1013.0
20260509162513 58 77 0.9 2.6 0.02 0.02 0.02 84 1013.1
20260509162048 58 53 0.0 3.5 0.02 0.02 0.02 84 1013.2
20260509161536 59 25 0.9 5.2 0.01 0.01 0.01 83 1013.3
20260509161015 59 39 0.9 5.2 0.01 0.01 0.01 83 1013.4
20260509160544 59 64 1.7 5.2 0.00 0.00 0.00 81 1013.4
20260509160023 59 56 0.9 6.1 0.00 0.00 0.00 81 1013.3
20260509155549 60 60 1.7 7.0 0.00 0.00 0.00 80 1013.3
20260509155033 60 65 2.6 8.7 0.00 0.00 0.00 81 1013.4
20260509154551 60 53 1.7 8.7 0.00 0.00 0.00 80 1013.7
20260509154023 60 17 2.6 7.8 0.00 0.00 0.00 79 1013.7
20260509153541 61 28 1.7 7.0 0.00 0.00 0.00 78 1013.8
20260509153017 61 84 0.9 7.0 0.00 0.00 0.00 79 1013.5
20260509152553 61 38 3.5 6.1 0.00 0.00 0.00 77 1013.4
20260509152017 61 66 0.9 7.8 0.00 0.00 0.00 78 1013.6
20260509151553 61 30 1.7 6.1 0.00 0.00 0.00 77 1013.5
20260509151018 61 15 2.6 7.0 0.00 0.00 0.00 76 1013.5
20260509150550 61 101 0.0 7.8 0.00 0.00 0.00 77 1013.4
20260509150032 61 66 0.9 7.8 0.00 0.00 0.00 77 1013.5
20260509145545 61 49 2.6 7.0 0.00 0.00 0.00 77 1013.3
20260509145024 61 31 2.6 7.0 0.00 0.00 0.00 76 1013.5
20260509144502 61 60 1.7 8.7 0.00 0.00 0.00 77 1013.4
20260509144029 61 60 2.6 7.8 0.00 0.00 0.00 76 1013.4
20260509143507 61 54 0.9 4.3 0.00 0.00 0.00 77 1013.3
20260509143045 61 38 0.9 6.1 0.00 0.00 0.00 77 1013.2
20260509142520 60 57 1.7 6.1 0.00 0.00 0.00 77 1013.4
20260509142055 60 72 0.9 5.2 0.00 0.00 0.00 77 1013.2
20260509141537 60 47 0.0 5.2 0.00 0.00 0.00 78 1013.2
20260509141017 60 66 0.9 3.5 0.00 0.00 0.00 79 1013.1
20260509140547 60 37 0.0 3.5 0.00 0.00 0.00 79 1013.3
20260509140027 60 72 0.9 3.5 0.00 0.00 0.00 78 1013.1
20260509135512 60 57 0.0 0.9 0.00 0.00 0.00 80 1013.0
20260509135045 59 57 0.0 0.9 0.00 0.00 0.00 80 1013.1
20260509134523 59 65 0.0 0.9 0.00 0.00 0.00 80 1013.1
20260509134054 59 68 0.0 3.5 0.00 0.00 0.00 81 1013.0
20260509133539 59 56 0.9 3.5 0.00 0.00 0.00 80 1013.2
20260509133102 59 81 0.0 3.5 0.00 0.00 0.00 79 1013.1
20260509132533 59 162 0.0 3.5 0.00 0.00 0.00 80 1013.0
20260509132012 59 68 0.0 0.0 0.00 0.00 0.00 80 1012.9
20260509131535 59 60 0.0 0.0 0.00 0.00 0.00 80 1012.9
20260509131019 59 60 0.0 0.0 0.00 0.00 0.00 81 1013.0
20260509130553 58 60 0.0 0.0 0.00 0.00 0.00 82 1013.1
20260509130031 58 59 0.0 0.0 0.00 0.00 0.00 82 1013.0
20260509125513 57 59 0.0 0.0 0.00 0.00 0.00 82 1013.0
20260509125049 57 55 0.0 0.0 0.00 0.00 0.00 82 1013.1
20260509124529 56 55 0.0 0.0 0.00 0.00 0.00 82 1013.1
20260509124014 56 192 0.0 0.0 0.00 0.00 0.00 82 1013.0
20260509123545 56 192 0.0 0.0 0.00 0.00 0.00 82 1013.1
20260509123025 56 192 0.0 0.0 0.00 0.00 0.00 82 1013.1
20260509122557 55 193 0.0 0.0 0.00 0.00 0.00 82 1013.3
20260509122036 55 193 0.0 0.0 0.00 0.00 0.00 82 1013.2
20260509121524 55 193 0.0 0.9 0.00 0.00 0.00 82 1013.1
20260509121053 55 193 0.0 1.7 0.00 0.00 0.00 82 1013.1
20260509120531 55 191 0.0 1.7 0.00 0.00 0.00 82 1013.1
20260509120054 54 188 0.0 0.9 0.00 0.00 0.00 82 1013.1
20260509115530 54 188 0.0 0.9 0.00 0.00 0.00 82 1013.0
20260509115010 54 188 0.0 0.9 0.00 0.00 0.00 82 1013.1
20260509114549 54 188 0.0 1.7 0.00 0.00 0.00 82 1013.1
20260509114010 54 189 0.0 0.9 0.00 0.00 0.00 81 1013.1
20260509113532 54 188 0.0 0.9 0.00 0.00 0.00 82 1013.2
20260509113011 54 188 0.0 0.0 0.00 0.00 0.00 82 1013.0
20260509112528 54 188 0.0 0.9 0.00 0.00 0.00 82 1013.1
20260509112013 54 188 0.0 0.9 0.00 0.00 0.00 82 1013.1
20260509111551 54 189 0.0 0.0 0.00 0.00 0.00 82 1013.1
20260509111029 54 189 0.0 0.0 0.00 0.00 0.00 81 1013.1
20260509110558 54 189 0.0 0.9 0.00 0.00 0.00 81 1013.1
20260509110500 54 189 0.0 0.9 0.00 0.00 0.00 81 1013.0
20260509110043 54 189 0.0 1.7 0.00 0.00 0.00 81 1013.2
20260509105526 54 189 0.0 1.7 0.00 0.00 0.00 81 1013.1
20260509105055 54 138 0.0 0.0 0.00 0.00 0.00 81 1013.2